Location: Nora Junction
(43.1400°N, 93.0163°W)
Time: 23:11:27
(UTC+00:00)

Cosmos 2228 - Pass Details

Date: 18 November 2025
Orbit: 565 x 588 km, 82.5° (Epoch: 14 December)

Event Time Altitude Azimuth Distance (km) Brightness Sun altitude
Rises 12:12:46 0° 358° (N) 2,831 6.3 -10.4°
Reaches altitude 10° 12:15:04 10° 5° (N) 1,926 5.5 -10.0°
Maximum altitude 12:19:08 43° 77° (ENE) 839 4.3 -9.3°
Drops below altitude 10° 12:23:09 10° 150° (SSE) 1,910 6.4 -8.6°
Sets 12:25:26 0° 157° (SSE) 2,804 7.1 -8.2°
